Hourly Data Report for October 31, 2013

All times are specified in Local Standard Time (LST). Add 1 hour to adjust for Daylight Saving Time where and when it is observed.

CHARLOTTETOWN A
PRINCE EDWARD ISLAND

46°17'21.000" N
63°07'09.000" W
48.50 m
8300301
71706
YYG

Download Data

Hourly Data (October 2013)
Hourly Data Report for October 31, 2013
Temp Definition
°C
Dew Point Temp Definition
°C
Rel Hum Definition
%
Wind Dir Definition
10's deg

Wind Spd Definition
km/h
Visibility Definition
km
Stn Press Definition
kPa
Hmdx Definition


Wind Chill Definition


Weather Definition


TIME
00:00 Legend Double Dagger 0.2 -6.7 60 25 7 24.1 101.45     LegendNANA
01:00 Legend Double Dagger 0.2 -6.3 62 24 8 24.1 101.44     LegendNANA
02:00 Legend Double Dagger -0.3 -6.5 63 26 10 24.1 101.45   -4 Mainly Clear
03:00 Legend Double Dagger -0.2 -6.6 62 26 12 24.1 101.49   -4 LegendNANA
04:00 Legend Double Dagger -0.4 -5.6 68 26 11 24.1 101.55   -4 LegendNANA
05:00 Legend Double Dagger -0.4 -4.7 73 26 11 24.1 101.56   -4 Mainly Clear
06:00 Legend Double Dagger -1.1 -4.5 78 27 12 24.1 101.58   -5 LegendNANA
07:00 Legend Double Dagger -1.0 -4.4 78 25 10 24.1 101.60   -5 LegendNANA
08:00 Legend Double Dagger 0.2 -3.9 74 25 8 24.1 101.71     Mainly Clear
09:00 Legend Double Dagger 2.7 -3.4 64 26 12 24.1 101.74     LegendNANA
10:00 Legend Double Dagger 4.3 -1.7 65 24 13 24.1 101.70     LegendNANA
11:00 Legend Double Dagger 5.2 -5.8 45 24 16 24.1 101.66     Mainly Clear
12:00 Legend Double Dagger 5.7 -6.6 41 21 22 24.1 101.64     LegendNANA
13:00 Legend Double Dagger 5.9 -4.6 47 24 17 24.1 101.53     LegendNANA
14:00 Legend Double Dagger 6.2 -4.0 48 21 23 24.1 101.46     Mostly Cloudy
15:00 Legend Double Dagger 6.4 -3.3 50 21 20 24.1 101.48     LegendNANA
16:00 Legend Double Dagger 6.4 -2.7 52 22 19 24.1 101.43     LegendNANA
17:00 Legend Double Dagger 5.8 -1.8 58 21 16 24.1 101.40     Mostly Cloudy
18:00 Legend Double Dagger 5.6 0.0 67 19 17 24.1 101.34     LegendNANA
19:00 Legend Double Dagger 6.3 -0.2 63 20 22 24.1 101.29     LegendNANA
20:00 Legend Double Dagger 6.4 0.9 68 18 23 24.1 101.21     Rain
21:00 Legend Double Dagger 7.0 0.9 65 18 33 24.1 101.12     Rain
22:00 Legend Double Dagger 6.1 4.4 89 18 26 12.9 101.00     Rain
23:00 Legend Double Dagger 6.7 6.0 95 17 33 6.4 100.81     Rain,Fog

Notes on Data Quality.

Legend

  • E = Estimated
  • M = Missing
  • NA = Not Available
  • ‡ = Partner data that is not subject to review by the National Climate Archives
Date modified: